DW9750 Weather Reports


time (UTC)temp
F
wind
direction
speed
knots
gust
knots
rain 1hr
in
rain 24hr
in
rain mn
in
humidity
%
barometer
mb
20260505051555 70 180 1.7 5.2 0.00 0.00 0.00 85 1008.4
20260505041553 70 148 0.9 4.3 0.00 0.00 0.00 81 1008.3
20260505040051 70 106 0.9 3.5 0.00 0.00 0.00 80 1008.3
20260505034549 70 131 0.0 2.6 0.00 0.00 0.00 79 1008.2
20260505033049 71 126 0.9 3.5 0.00 0.00 0.00 78 1008.2
20260505031548 71 88 0.0 0.0 0.00 0.00 0.00 78 1008.2
20260505030048 71 102 0.0 0.0 0.00 0.00 0.00 77 1008.1
20260505024547 71 137 0.0 1.7 0.00 0.00 0.00 77 1008.1
20260505023051 72 97 0.9 2.6 0.00 0.00 0.00 76 1008.2
20260505021545 72 147 0.9 3.5 0.00 0.00 0.00 75 1008.1
20260505020045 73 134 0.0 2.6 0.00 0.00 0.00 74 1008.1
20260505014545 73 183 0.9 4.3 0.00 0.00 0.00 73 1008.0
20260505013043 74 170 0.9 4.3 0.00 0.00 0.00 71 1007.8
20260505011550 75 166 3.5 6.1 0.00 0.00 0.00 70 1007.7
20260505010047 76 211 1.7 5.2 0.00 0.00 0.00 69 1007.8
20260505004542 76 195 1.7 7.0 0.00 0.00 0.00 68 1007.9
20260505003040 77 178 3.5 8.7 0.00 0.00 0.00 67 1007.9
20260505001540 78 230 4.3 8.7 0.00 0.00 0.00 65 1007.8
20260505000040 79 189 4.3 10.4 0.00 0.00 0.00 64 1007.8
20260504234539 79 156 1.7 10.4 0.00 0.00 0.00 64 1007.7
20260504233042 79 141 3.5 10.4 0.00 0.00 0.00 62 1007.7
20260504231538 79 179 6.1 12.2 0.00 0.00 0.00 61 1008.0
20260504230034 79 181 2.6 11.3 0.00 0.00 0.00 63 1008.1
20260504224532 79 153 5.2 13.9 0.00 0.00 0.00 63 1008.5
20260504223031 80 227 5.2 13.9 0.00 0.00 0.00 61 1008.5
20260504221628 80 132 2.6 13.9 0.00 0.00 0.00 61 1008.6
20260504220027 80 197 2.6 10.4 0.00 0.00 0.00 64 1008.7
20260504214526 80 163 4.3 11.3 0.00 0.00 0.00 63 1008.9
20260504213025 80 213 5.2 13.0 0.00 0.00 0.00 61 1009.0
20260504211522 78 178 5.2 13.9 0.00 0.00 0.00 64 1009.2
20260504210024 78 255 6.1 12.2 0.00 0.00 0.00 63 1009.4
20260504204518 79 227 4.3 10.4 0.00 0.00 0.00 64 1009.7
20260504203015 78 229 3.5 12.2 0.00 0.00 0.00 64 1010.0
20260504201513 78 155 6.1 11.3 0.00 0.00 0.00 63 1010.2
20260504200021 78 201 5.2 13.0 0.00 0.00 0.00 64 1010.5
20260504194508 78 201 4.3 10.4 0.00 0.00 0.00 65 1010.6
20260504193005 78 210 5.2 10.4 0.00 0.00 0.00 64 1010.8
20260504191513 78 220 4.3 8.7 0.00 0.00 0.00 63 1011.0
20260504190003 77 192 3.5 12.2 0.00 0.00 0.00 66 1011.1
20260504184506 77 257 6.1 11.3 0.00 0.00 0.00 64 1011.2
20260504183104 77 194 4.3 9.6 0.00 0.00 0.00 68 1011.3
20260504181555 76 198 5.2 12.2 0.00 0.00 0.00 66 1011.7
20260504180052 75 252 5.2 12.2 0.00 0.00 0.00 67 1011.9
20260504174552 76 199 4.3 12.2 0.00 0.00 0.00 67 1012.2
20260504173052 75 267 4.3 13.9 0.00 0.00 0.00 69 1012.2
20260504171545 74 159 6.1 13.9 0.00 0.00 0.00 69 1012.4
20260504081546 61 208 0.9 3.5 0.00 0.00 0.00 81 1014.6